Location: Burdett
(38.1920°N, 99.5268°W)
Time: 04:52:01
(UTC+00:00)

Daily predictions for brighter satellites

Satellite Brightness Start Highest point End
(mag) Time Altitude Azimuth Time Altitude Azimuth Time Altitude Azimuth
Cosmos 1908 3.9 00:07:01 10° SSW 00:10:46 59° W 00:14:35 10° N
Aureole 3 4.2 00:12:42 10° SE 00:15:16 20° E 00:17:37 10° NE
Cosmos 1825 Rocket 3.8 00:11:14 10° N 00:15:34 49° E 00:19:49 10° SSE
YAOGAN 1 4.2 00:13:32 10° E 00:15:55 15° ENE 00:18:18 10° NNE
SL-4 R/B 4.2 00:19:29 10° NNW 00:20:28 11° N 00:21:27 10° N
Hubble Space Telescope 3.5 00:23:44 10° SW 00:25:15 12° SSW 00:26:46 10° S
CZ-2C R/B 4.3 00:20:49 10° ESE 00:25:22 24° ENE 00:29:51 10° NNE
Delta 2 Rocket 4.2 00:20:48 10° W 00:25:57 67° S 00:31:32 10° ESE
Cosmos 1110 Rocket 4.2 00:20:58 10° SSW 00:26:14 78° WNW 00:31:29 10° NNE
Cosmos 1726 Rocket 3.5 00:23:10 10° S 00:27:25 62° E 00:31:44 10° NNE
Atlas Centaur 2 4.1 00:20:57 10° SW 00:28:11 33° SSE 00:35:21 10° E
CZ-4B R/B 4.0 00:22:44 10° S 00:28:17 59° WSW 00:33:47 10° NNW
CZ-2D R/B 4.1 00:25:15 10° SE 00:28:29 27° ENE 00:31:44 10° NNE
Timation 2 Rocket 4.5 00:22:22 10° NNW 00:28:39 43° ENE 00:35:05 10° SE
Cosmos 1302 Rocket 4.2 00:23:52 10° S 00:28:53 48° ESE 00:33:57 10° NNE
Cosmos 1703 4.5 00:27:51 10° NNW 00:31:39 47° W 00:35:26 10° SSW
Cosmos 1300 2.6 00:27:58 10° S 00:31:44 70° E 00:35:33 10° NNE
Cosmos 1758 Rocket 3.8 00:29:05 10° N 00:33:29 75° W 00:37:48 10° S
Okean-O 3.3 00:33:00 10° SE 00:36:54 31° ENE 00:40:50 10° N
Cosmos 2228 3.5 00:36:55 10° SSW 00:41:07 64° W 00:45:20 10° N
Cosmos 1606 Rocket 3.9 00:38:02 10° SSW 00:42:20 67° W 00:46:43 10° N
Cosmos 1656 3.8 00:39:50 10° S 00:45:08 50° ESE 00:50:32 10° NNE
CZ-4B R/B 3.3 00:42:38 10° N 00:45:30 30° WNW 00:48:17 10° SW
FALCON 9 DEB 3.9 00:42:35 10° WSW 00:45:40 43° NW 00:48:22 13° NE
Cosmos 2227 Rocket 3.1 00:42:57 10° N 00:47:47 28° ENE 00:51:12 16° ESE
MOS 1 Rocket 4.2 00:44:56 10° NE 00:49:01 28° E 00:53:17 10° SSE
Cosmos 1553 Rocket 4.1 00:44:28 10° SSE 00:50:37 53° E 00:56:44 10° NNE
Meteor 2-8 Rocket 4.4 00:45:04 10° S 00:51:05 65° E 00:57:09 10° NNE
SKYMED 2 3.6 00:47:22 10° N 00:51:44 84° WNW 00:56:04 10° SSW
Cosmos 44 3.8 00:47:31 10° SW 00:51:51 54° NW 00:56:28 10° NNE
FALCON 9 DEB 4.3 00:48:53 10° WSW 00:51:52 35° NW 00:54:17 14° NNE
CSL-04 Rocket 4.5 00:48:31 10° SE 00:53:13 29° ENE 00:57:55 10° N
CZ-4 R/B 4.4 00:51:58 10° SSE 00:56:04 67° ENE 01:00:12 10° N
OAO 3 Rocket 3.7 00:53:20 10° W 00:58:00 52° S 01:01:04 20° ESE
Cosmos 1697 Rocket 3.2 00:57:22 10° S 01:02:25 36° ESE 01:05:59 18° NE
Helios 1A Rocket 2.8 00:59:36 10° SSE 01:03:42 72° ENE 01:07:49 10° N
Cosmos 1340 2.7 01:00:08 10° N 01:03:51 55° E 01:07:32 10° SSE
Cosmos 1939 Rocket 3.1 01:01:03 10° S 01:05:02 70° W 01:08:59 10° NNW
H-2A R/B 2.6 01:03:48 10° SE 01:08:45 39° ENE 01:13:46 10° N
Cosmos 1992 Rocket 4.2 01:05:13 10° S 01:10:08 44° ESE 01:13:53 17° NE
ASTRO E2 4.2 01:07:19 10° SW 01:10:26 22° SSE 01:11:22 20° SE
IRS-P2 Rocket 4.5 01:05:34 10° SSE 01:10:45 79° ENE 01:16:02 10° N
Cosmos 2058 Rocket 3.5 01:07:25 10° SSW 01:11:51 67° W 01:16:21 10° N
Cosmos 220 Rocket 4.2 01:09:32 10° S 01:13:41 47° ESE 01:15:18 31° NE
Cosmos 1953 Rocket 4.5 01:11:12 10° NNW 01:15:30 51° W 01:19:47 10° SSW
Aureole 3 Rocket 3.4 01:12:22 10° SSW 01:15:50 59° W 01:20:28 10° N
SL-08 R/B 4.3 01:14:07 10° N 01:20:18 78° E 01:26:24 10° S
Cosmos 1745 Rocket 4.0 01:14:40 10° N 01:20:51 56° E 01:27:03 10° SSE
Cosmos 1455 3.1 01:17:39 10° S 01:19:52 31° SSE 01:19:52 31° SSE
Cosmos 1980 Rocket 3.4 01:19:37 10° SSE 01:22:19 23° SE 01:22:19 23° SE
CZ-4 R/B 1.4 01:21:36 10° S 01:25:31 77° WSW 01:29:24 10° NNW
Meteor 2-15 4.3 01:19:33 10° S 01:25:42 81° E 01:31:51 10° N
Cosmos 44 Rocket 4.4 01:22:54 10° S 01:25:34 26° SSE 01:25:34 26° SSE
Geosat 4.1 01:22:14 10° NNE 01:27:16 76° WNW 01:32:16 10° SSW
Cosmos 2058 3.3 01:23:47 10° N 01:26:52 42° NE 01:26:52 42° NE
Cosmos 2297 Rocket 2.1 01:22:32 10° NNW 01:28:13 74° ENE 01:32:04 21° SSE
GPS 2-04 Rocket1 4.4 01:26:03 10° SSW 01:28:47 22° SSE 01:28:47 22° SSE
CSL-04 Debris 4.1 01:25:58 10° SSE 01:31:20 67° ENE 01:36:45 10° N
In-Cosmos 22 Rocket 4.2 01:25:58 10° NNW 01:31:20 79° W 01:36:48 10° S
Milstar 3 3.6 01:25:40 10° WSW 01:31:52 38° S 01:34:44 27° SE
Cosmos 2360 4.3 01:28:50 10° S 01:34:22 53° ESE 01:35:33 45° ENE
Cosmos 1386 Rocket 4.4 01:31:43 10° N 01:38:07 73° E 01:44:26 10° SSE
OAO 2 Rocket 3.5 01:41:55 10° WSW 01:46:45 53° S 01:46:47 53° SSE
SeaSat 1 3.0 01:51:12 43° NNE 01:51:12 43° NNE 01:54:50 10° NNW
Cosmos 2278 4.4 01:44:43 10° S 01:48:20 37° SSE 01:48:20 37° SSE
Cosmos 1709 Rocket 4.1 01:44:38 10° N 01:50:36 53° ENE 01:50:36 53° ENE
YAOGAN 1 3.5 01:47:26 10° S 01:51:35 46° W 01:55:47 10° NNW
Cosmos 2219 3.6 01:50:04 10° NNW 01:55:45 61° WSW 01:59:59 18° S
Cosmos 1892 4.1 01:56:03 10° NNW 01:59:39 37° W 02:01:24 24° SW
Cosmos 2315 Rocket 4.3 01:54:54 10° S 02:04:30 27° NNE 02:07:12 10° NNE
Cosmos 1315 Rocket 4.0 01:57:27 10° SSW 02:00:17 39° WSW 02:00:17 39° WSW
Cosmos 883 Rocket 4.3 01:56:26 10° S 02:02:37 87° E 02:08:47 10° N
CZ-2C R/B 4.2 01:59:17 10° S 02:04:52 47° W 02:10:23 10° NNW
Cosmos 1346 Rocket 4.4 02:01:42 10° NNW 02:03:57 30° NW 02:03:57 30° NW
Cosmos 2082 4.0 02:00:03 10° NNW 02:04:35 53° N 02:04:35 53° N
Cosmos 968 Rocket 3.8 02:02:31 10° NNW 02:07:40 63° WSW 02:08:22 57° SW
Cosmos 2369 4.0 02:07:26 10° SSW 02:13:07 66° WNW 02:14:27 50° N
Atlas Centaur 2 3.4 02:09:19 10° WSW 02:17:25 48° S 02:17:56 47° SSE
ARGOS 3.4 02:18:07 67° W 02:18:07 67° W 02:23:30 10° NNW
BREEZE-M TANK 4.4 02:20:32 10° WNW 02:23:05 27° NW 02:23:05 27° NW
USA 215 4.2 02:29:52 34° N 02:29:52 34° N 02:34:28 10° NNW
Cosmos 2227 Rocket 3.4 02:26:41 10° NW 02:31:54 39° WSW 02:33:07 34° SW
ATLAS 2AS CENTAUR R/B 4.2 02:37:44 10° NNW 02:41:40 27° N 02:41:40 27° N
Cosmos 1697 Rocket 4.3 02:41:32 10° WSW 02:46:23 30° WNW 02:47:49 26° NNW
H-2A R/B 4.1 02:43:51 10° SSW 02:48:13 25° W 02:52:40 10° NW
Cosmos 2344 4.4 09:27:00 43° NE 09:27:00 43° NE 09:31:53 10° NE
ADEOS Rocket 4.3 09:55:06 10° SE 09:59:55 33° ENE 10:04:47 10° N
ISS -0.2 10:19:03 10° ENE 10:19:03 10° ENE 10:19:07 10° ENE
DELTA 2 R/B (1) 4.0 10:24:50 58° ESE 10:24:50 58° ESE 10:29:19 10° ESE
NOSS 3-2 (C) 3.9 10:31:39 47° N 10:31:39 47° N 10:36:28 10° NNE
Lacrosse 4 Rocket 3.6 10:33:26 18° NNE 10:33:26 18° NNE 10:34:34 10° NNE
ALOS 4.2 10:30:46 10° NE 10:34:48 28° E 10:38:48 10° SSE
Cosmos 1626 4.3 10:37:31 10° SSE 10:40:34 25° E 10:43:38 10° NE
CENTAUR R/B 2.8 10:44:29 49° NNW 10:44:29 49° NNW 10:50:35 10° NNE
BREEZE-M DEB (TANK) 4.4 10:43:12 44° NNW 10:44:57 64° NE 11:01:18 10° ESE
CZ-2C R/B 2.7 10:40:51 10° N 10:44:45 55° N 10:44:45 55° N
Cosmos 1833 Rocket 2.7 10:50:45 31° SSW 10:53:35 78° ESE 10:59:15 10° NNE
PAYLOAD A 4.3 10:48:45 10° N 10:52:49 51° NNW 10:52:49 51° NNW
ADEOS 4.3 10:48:55 10° NNE 10:54:02 52° E 10:59:06 10° S
Cosmos 1269 Rocket 4.3 10:57:37 50° NW 10:57:37 50° NW 11:02:02 10° N
Lacrosse 5 rocket 2.2 10:58:35 37° NNE 10:58:35 37° NNE 11:00:59 10° NE
CZ-3 R/B 3.8 10:42:22 27° WSW 10:58:06 54° S 11:06:32 10° ESE
Cosmos 1302 Rocket 4.2 10:53:37 13° NNW 10:58:18 73° ENE 11:03:33 10° SSE
Nadezhda 4 Rocket 4.1 10:52:29 10° S 10:58:33 73° E 11:04:40 10° N
H-2A R/B 3.9 10:56:22 10° S 10:57:55 21° S 10:57:55 21° S
Cosmos 2180 Rocket 4.3 10:54:35 10° N 11:00:52 81° W 11:07:01 10° S
Meteor 1-31 Rocket 4.1 11:01:22 10° NNE 11:05:06 40° E 11:08:47 10° S
CZ-4B R/B 2.3 11:08:07 10° SSE 11:11:28 49° ENE 11:14:49 10° N
Cosmos 2082 Rocket 2.6 11:07:17 10° S 11:12:47 62° ESE 11:18:19 10° NNE
SJ-6F 4.2 11:09:17 10° N 11:13:23 79° WNW 11:15:42 25° SSW
Meteor 1-16 Rocket 4.1 11:10:42 10° NNW 11:15:51 54° W 11:21:01 10° S
CZ-4B R/B 4.3 11:15:01 10° NNE 11:19:11 62° E 11:23:06 10° S
Cosmos 1656 3.6 11:17:43 16° NNW 11:22:21 64° WSW 11:27:56 10° S
deb Chang Zheng 4 3.5 11:18:23 10° NNE 11:22:39 84° ESE 11:26:55 10° SSW
Intercosmos 24 4.2 11:19:11 10° N 11:22:53 60° E 11:26:25 10° SSE
Meteor 2-5 Rocket 3.7 11:20:01 10° S 11:25:40 88° W 11:31:30 10° N
ATLAS 3B R/B 2.5 11:23:36 10° SW 11:30:10 78° WNW 11:36:50 10° NNE
Cosmos 1892 Rocket 4.2 11:26:03 10° S 11:30:16 56° E 11:34:33 10° NNE
Cosmos 2084 4.3 11:27:06 10° SSW 11:31:15 51° ESE 11:35:30 10° NE
COSMOS 2406 3.7 11:30:19 29° WSW 11:32:20 38° WNW 11:37:37 10° N
Cosmos 1400 Rocket 4.2 11:28:54 10° N 11:32:36 38° ENE 11:36:14 10° SSE
ERS-2 2.3 11:34:26 10° S 11:37:56 46° W 11:40:22 18° NNW
Cosmos 1992 Rocket 4.4 11:33:41 10° NNW 11:38:53 66° ENE 11:44:02 10° SSE
Cosmos 1697 Rocket 2.6 11:35:41 10° NNW 11:41:22 84° WSW 11:47:01 10° SSE
ARGOS Delta rocket 4.2 11:37:13 10° N 11:42:40 89° E 11:48:09 10° SSW
SAR-Lupe-4 3.5 11:39:26 10° SSE 11:43:00 90° W 11:46:36 10° NNW
Cosmos 1908 4.1 11:43:54 28° W 11:43:54 28° W 11:47:10 10° SSW
Abrixas rocket 4.3 11:42:40 13° NNW 11:43:50 15° NNE 11:45:39 10° NE
SKYMED 2 4.1 11:40:25 10° SSE 11:44:41 61° ENE 11:48:58 10° N
ADEOS Rocket 3.5 11:40:47 10° SSW 11:45:28 28° W 11:50:11 10° NW
SL-19 R/B 3.4 11:43:17 10° N 11:46:03 59° WNW 11:48:55 10° SSW
Cosmos 44 Rocket 3.7 11:43:10 17° NW 11:46:57 47° WSW 11:51:55 10° S
SJ-12 3.9 11:44:03 10° NNE 11:48:11 90° SSE 11:52:16 10° SSW
Cosmos 1689 Rocket 2.7 11:46:04 10° SSE 11:48:57 57° ENE 11:51:49 10° N
Cosmos 1461 3.5 11:46:38 19° WSW 11:49:30 43° NW 11:53:59 10° NNE
SL-14 R/B 3.6 11:48:26 10° SSW 11:52:11 42° W 11:56:02 10° N
ISS -2.4 11:52:01 21° NW 11:52:50 23° NNW 11:55:36 10° NNE
FENGYUN 3A 3.9 11:49:04 10° N 11:54:14 45° WNW 11:59:22 10° SW
USA 290 2.4 11:51:40 10° SW 11:54:46 46° WNW 11:57:54 10° N
